This demonstration page uses our WeatherBlox Daily Observations layout. Learn more.

Left ArrowRight Arrow

39.01783, -85.05884

Hourly Observations for September 12, 2020

Temp ( °F °C ) Dew Point ( °F °C ) Humidity (%) Winds ( mph kmh ) Pressure ( in mb ) Visibility ( mi km ) Precip ( " mm )
12:52 am 00:52 Cloudy 67 19.4 61 16.1 81 81 E 10 17 30.13 1020 10 16 0.00 0.00
1:52 am 01:52 Cloudy 67 19.4 61 16.1 81 81 E 9 15 30.11 1020 9 14 0.00 0.00
2:20 am 02:20 Partly Cloudy 65 18.3 61 16.1 87 87 E 5 7 30.11 1020 10 16 0.00 0.00
2:52 am 02:52 Clear 65 18.3 61 16.1 87 87 E 6 9 30.10 1019 10 16 0.00 0.00
3:52 am 03:52 Clear 65 18.3 60 15.6 84 84 ENE 10 17 30.06 1018 9 14 0.00 0.00
4:52 am 04:52 Clear 64 17.8 60 15.6 87 87 E 8 13 30.05 1018 10 16 0.00 0.00
5:52 am 05:52 Mostly Cloudy 64 17.8 60 15.6 87 87 E 9 15 30.04 1017 10 16 0.00 0.00
6:52 am 06:52 Clear 64 17.8 59 15 84 84 NE 5 7 30.04 1017 9 14 0.00 0.00
7:52 am 07:52 Sunny 63 17.2 59 15 87 87 E 6 9 30.05 1018 8 13 0.00 0.00
8:28 am 08:28 Mostly Cloudy 64 17.8 60 15.6 87 87 ESE 6 9 30.05 1018 7 11 0.00 0.00
8:52 am 08:52 Cloudy 65 18.3 61 16.1 87 87 SE 9 15 30.04 1017 7 11 0.00 0.00
9:52 am 09:52 Cloudy with Mist and Fog 65 18.3 62 16.7 90 90 SSE 9 15 30.05 1018 3 5 0.00 0.00
10:52 am 10:52 Cloudy with Mist and Fog 67 19.4 63 17.2 87 87 SSE 6 9 30.05 1018 3 5 0.00 0.00
11:52 am 11:52 Cloudy 70 21.1 65 18.3 84 84 VRB 5 7 30.05 1018 3 5 0.00 0.00
12:37 pm 12:37 Partly Cloudy 74 23.3 66 18.9 76 76 SSE 6 9 30.04 1017 8 13 0.00 0.00
12:52 pm 12:52 Partly Cloudy 74 23.3 66 18.9 76 76 VRB 6 9 30.04 1017 10 16 0.00 0.00
1:52 pm 13:52 Mostly Cloudy 77 25 68 20 74 74 S 6 9 30.01 1016 9 14 0.00 0.00
2:52 pm 14:52 Mostly Cloudy 80 26.7 69 20.6 69 69 VRB 5 7 29.98 1015 10 16 0.00 0.00
3:52 pm 15:52 Mostly Cloudy 84 28.9 71 21.7 65 65 S 9 15 29.95 1014 10 16 0.00 0.00
4:52 pm 16:52 Mostly Cloudy 84 28.9 72 22.2 67 67 S 12 19 29.94 1014 10 16 0.00 0.00
5:52 pm 17:52 Mostly Cloudy 83 28.3 71 21.7 67 67 S 6 9 29.93 1014 10 16 0.00 0.00
6:52 pm 18:52 Mostly Cloudy 81 27.2 72 22.2 74 74 SW 5 7 29.95 1014 10 16 0.00 0.00
7:52 pm 19:52 Cloudy 79 26.1 71 21.7 77 77 SSW 5 7 29.95 1014 10 16 0.00 0.00
8:52 pm 20:52 Cloudy 77 25 71 21.7 82 82 SSW 5 7 29.96 1015 10 16 0.00 0.00
9:10 pm 21:10 Cloudy 78 25.6 71 21.7 79 79 SSW 3 6 29.95 1014 10 16 0.00 0.00
9:20 pm 21:20 Cloudy 78 25.6 71 21.7 79 79 S 3 6 29.95 1014 10 16 0.00 0.00
9:52 pm 21:52 Cloudy with Light Rain 78 25.6 72 22.2 82 82 ESE 8 13 29.96 1015 10 16 0.00 0.00
10:52 pm 22:52 Cloudy 77 25 72 22.2 85 85 S 6 9 29.96 1015 10 16 0.00 0.00
11:16 pm 23:16 Cloudy with Thunderstorms 76 24.4 73 22.8 91 91 S 9 15 29.96 1015 8 13 0.01 0.25
11:52 pm 23:52 Cloudy with Thunderstorms 76 24.4 73 22.8 91 91 S 10 17 29.96 1015 10 16 0.07 1.78
11:59 pm 23:59 Cloudy with Thunderstorms 75 23.9 72 22.2 90 90 S 10 17 29.97 1015 7 11 0.01 0.25

Powered by AerisWeather